Location: Bukit Setapoh
(2.2500°N, 113.8000°E)
Time: 00:29:06
(UTC+00:00)

ARGOS - Pass Details

Date: 25 July 2021
Orbit: 820 x 835 km, 98.4° (Epoch: 22 September)

Event Time Altitude Azimuth Distance (km) Brightness Sun altitude
Rises 11:13:52 0° 159° (SSE) 3,375 5.9 -9.2°
Reaches altitude 10° 11:16:16 10° 155° (SSE) 2,441 5.2 -9.8°
Maximum altitude 11:21:34 56° 77° (ENE) 984 3.3 -11.0°
Drops below altitude 10° 11:26:51 10° 0° (N) 2,435 5.9 -12.3°
Sets 11:29:14 0° 356° (N) 3,367 6.7 -12.8°
